Printer-friendly version

IAU Minor Planet Center

Minor Planet Center

MPEC 2006-H25 : 2006 HF6

The following Minor Planet Electronic Circular may be linked-to from your own Web pages, but must not otherwise be redistributed electronically.


Read MPEC 2006-H24 Read MPEC 2006-H26


M.P.E.C. 2006-H25                                Issued 2006 Apr. 21, 18:40 UT

     The Minor Planet Electronic Circulars contain information on unusual
         minor planets and routine data on comets.  They are published
   on behalf of Commission 20 of the International Astronomical Union by the
          Minor Planet Center, Smithsonian Astrophysical Observatory,
                          Cambridge, MA 02138, U.S.A.

                  Supported in part by the Brinson Foundation
                  Supported in part by the TABASGO Foundation
             Prepared using the Tamkin Foundation Computer Network

                              MPC@CFA.HARVARD.EDU
          URL http://cfa-www.harvard.edu/iau/mpc.html  ISSN 1523-6714

                                   2006 HF6

Observations:
     K06H06F* C2006 04 21.33438 14 01 40.08 -19 09 56.8          17.1 V EH025703
     K06H06F  C2006 04 21.34417 14 01 31.08 -19 10 23.4          17.4 V EH025703
     K06H06F  C2006 04 21.35392 14 01 22.29 -19 10 48.0          17.2 V EH025703
     K06H06F  C2006 04 21.36374 14 01 13.40 -19 11 12.6          16.8 V EH025703
     K06H06F  C2006 04 21.38850 14 00 51.40 -19 12 12.4          17.0 V EH025703
     K06H06F  C2006 04 21.38936 14 00 50.65 -19 12 14.7          17.0 V EH025703
     K06H06F  C2006 04 21.39024 14 00 49.89 -19 12 16.9          17.1 V EH025703
     K06H06F  C2006 04 21.39112 14 00 49.17 -19 12 18.9          17.1 V EH025703
     K06H06F  C2006 04 21.66382 13 57 35.13 -19 18 35.2          17.6 V EH025E12
     K06H06F  C2006 04 21.67424 13 57 27.36 -19 18 56.0          17.8 V EH025E12
     K06H06F  C2006 04 21.68470 13 57 19.69 -19 19 16.3          17.4 V EH025E12
     K06H06F  C2006 04 21.69516 13 57 11.98 -19 19 36.2          17.1 V EH025E12

Observer details:
703 Catalina Sky Survey.  Observer A. R. Gibbs.  Measurers E. C. Beshore,
    E. J. Christensen, G. J. Garradd, A. R. Gibbs, A. D. Grauer, R. E. Hill,
    R. A. Kowalski, S. M. Larson, R. H. McNaught.  0.68-m Schmidt + CCD.
E12 Siding Spring Survey.  Observer R. H. McNaught.  Measurers E. C. Beshore,
    E. J. Christensen, G. J. Garradd, A. R. Gibbs, A. D. Grauer, R. E. Hill,
    R. A. Kowalski, S. M. Larson, R. H. McNaught.  0.5-m Uppsala Schmidt + CCD.

Orbital elements:
2006 HF6                                                 Earth MOID = 0.0027 AU
Epoch 2006 Mar. 6.0 TT = JDT 2453800.5                  MPC
M   5.94793              (2000.0)            P               Q
n   0.58341866     Peri.   86.65334     -0.43973079     -0.89637331
a   1.4184559      Node    29.63715     +0.77234901     -0.40931058
e   0.5527926      Incl.    6.51872     +0.45838176     -0.17023436
P   1.69           H   24.2           G   0.15           U   7
Residuals in seconds of arc
060421 703  0.0   0.1+    060421 703  0.4-  0.5+    060421 E12  0.1-  0.0
060421 703  0.4-  0.7-    060421 703  0.3-  0.2+    060421 E12  0.0   0.1-
060421 703  0.6+  0.2-    060421 703  0.2-  0.1+    060421 E12  0.6+  0.0
060421 703  0.1+  0.0     060421 703  0.5+  0.2+    060421 E12  0.6-  0.1+

Ephemeris:
2006 HF6                 a,e,i = 1.42, 0.55, 7                   q = 0.6343
Date    TT    R. A. (2000) Decl.     Delta      r     Elong.  Phase     V
2006 04 15    00 44.53   +22 30.3    0.0321   0.972    17.2   162.3    28.5
2006 04 17    23 52.14   +23 28.5    0.0137   0.992    28.7   150.9    23.5
2006 04 19    15 56.73   -10 01.5    0.00774  1.011   148.1    31.7    15.0
2006 04 21    14 06.75   -18 48.0    0.0254   1.030   172.3     7.5    16.8
2006 04 23    13 47.19   -19 53.7    0.0441   1.049   171.7     7.9    18.1
2006 04 25    13 39.27   -20 16.8    0.0630   1.068   169.8     9.6    19.0
2006 04 27    13 35.07   -20 27.5    0.0821   1.087   168.0    11.1    19.6
2006 04 29    13 32.55   -20 33.0    0.101    1.106   166.2    12.6    20.2
2006 05 01    13 30.98   -20 35.9    0.121    1.124   164.4    13.9    20.7
2006 05 03    13 29.99   -20 37.3    0.141    1.143   162.7    15.2    21.1
2006 05 05    13 29.42   -20 37.8    0.161    1.161   161.0    16.4    21.4
2006 05 07    13 29.15   -20 37.8    0.181    1.180   159.3    17.6    21.8
2006 05 09    13 29.13   -20 37.6    0.201    1.198   157.6    18.7    22.1
2006 05 11    13 29.32   -20 37.1    0.222    1.216   155.9    19.8    22.3
2006 05 13    13 29.67   -20 36.7    0.243    1.234   154.3    20.8    22.6
2006 05 15    13 30.18   -20 36.3    0.264    1.252   152.6    21.8    22.9

Timothy B. Spahr             (C) Copyright 2006 MPC           M.P.E.C. 2006-H25

Read MPEC 2006-H24 Read MPEC 2006-H26


Our Web policy. Index to the CBAT/MPC/ICQ pages.


Valid HTML 4.01!